Flag for Pakistan Weather past 2 weeks in Rawalpindi, Pakistan

Now
79 °F

Scattered clouds.


Feels Like: 81 °F
Forecast: 71 / 97 °F
Wind: 7 mph from Northeast

Location: Islamabad Airport

Current Time: Aug 29, 2014 at 9:06:52 AM

Latest Report: Aug 29, 2014 at 8:00 AM


Visibility: 4 mi

Pressure: 29.83 "Hg

Humidity: 70%

Dew point: 68 °F

Location of RawalpindiLocation

Historic Weather in Rawalpindi — Graph

°F

Rawalpindi temperature yesterday

Maximum temperature yesterday: 88 °F (at 1:00 PM)
Minimum temperature yesterday: 75 °F (at 5:00 AM)
Average temperature yesterday: 81 °F

Past Weeks' High & Low Weather Summary

 TemperatureHumidityPressure
High100 °F (Aug 18, 10:00 PM)94% (Aug 14, 9:00 AM)29.86 "Hg (Aug 14, 9:00 AM)
Low68 °F (Aug 22, 11:00 PM)37% (Aug 18, 10:00 PM)29.45 "Hg (Aug 14, 4:00 PM)
Average83 °F69%29.71 "Hg
* Reported Aug 14 8:00 AM — Aug 29 8:00 AM, Rawalpindi, Weather by CustomWeather, © 2014

Note: Actual official high and low records may vary slightly from our data, if they occured in-between our weather recording intervals... More about our weather records

Advertising

Rawalpindi weather history for previous 24 hours

 ConditionsComfort  
Time TempWeatherWind HumidityBarometerVisibility
8:00 AM
Aug 29
79 °FScattered clouds.7 mph70%29.83 "Hg4 mi
7:00 AM77 °FScattered clouds.5 mph79%29.80 "Hg4 mi
6:00 AM75 °FScattered clouds.5 mph78%29.80 "Hg4 mi
5:00 AM77 °FPassing clouds.5 mph79%29.77 "Hg4 mi
4:00 AM77 °FPassing clouds.5 mph83%29.77 "Hg4 mi
3:00 AM77 °FPassing clouds.5 mph79%29.77 "Hg4 mi
2:00 AM77 °FPassing clouds.5 mph83%29.77 "Hg4 mi
1:00 AM79 °FPassing clouds.5 mph79%29.77 "Hg4 mi
12:00 AM79 °FPassing clouds.5 mph79%29.77 "Hg4 mi
11:00 PM
Aug 28
81 °FPassing clouds.5 mph70%29.77 "Hg5 mi
10:00 PM81 °FPassing clouds.9 mph70%29.77 "Hg5 mi
9:00 PM81 °FPassing clouds.9 mph70%29.80 "Hg5 mi
8:00 PM84 °FPassing clouds.9 mph58%29.77 "Hg5 mi
7:00 PM84 °FPassing clouds.9 mph58%29.77 "HgN/A
6:00 PM86 °FScattered clouds.9 mph55%29.77 "HgN/A
5:00 PM86 °FScattered clouds.9 mph55%29.77 "HgN/A
4:00 PM86 °FBroken clouds.9 mph55%29.77 "HgN/A
3:00 PM86 °FBroken clouds.14 mph52%29.80 "HgN/A
1:00 PM88 °FBroken clouds.12 mph49%29.83 "Hg4 mi
12:00 PM86 °FBroken clouds.12 mph55%29.83 "Hg4 mi
11:00 AM84 °FBroken clouds.7 mph55%29.83 "Hg4 mi
10:00 AM84 °FBroken clouds.5 mph55%29.83 "HgN/A
9:00 AM82 °FScattered clouds.5 mph58%29.80 "HgN/A
Weather by CustomWeather, © 2014

See weather overviewHow to use our weather pages